XAIOXIANG-1 07 (44519 NORAD) Tracking and Keplerian Element Data

This shows tracking and keplerian element data for the satellite.

Feedback or suggestion? Click here.




ElementValue
Catalog44519
NameXAIOXIANG-1 07
Epoch Orbit286
Epoch Day262.18170804
Epoch Year2019
RAAN267.7778
Inclination97.7898
Eccentricity0.001234
Argument of Perigee222.3303
Mean Anonmoly137.6987
Mean Motion14.89089564
Decay Rate-2.5E-07
L11 44519U 19058A 19262.18170804 -.00000025 00000-0 32455-5 0 9997
L22 44519 97.7898 267.7778 0012340 222.3303 137.6987 14.89089564 2863

Live tracking and technical data element details for XAIOXIANG-1 07 (NORAD 44519). XAIOXIANG-1 07 can be tracked NOW for your location showing map with azimuth and elevation plus other details from your city location.

Track the satellite on the map from your city or location and see movement details for azimuth, elevation, latitude, longitude, range, height, and movement on the map or in text.







IsCatalogInMostPopularTable: catalog: 44519, numindb: 9
Update: records affected: 1



GetName: 44519 XAIOXIANG-1 07

Hit Count: updated at: Thu, 19 Sep 2019 16:45:47 GMT